Regional Weather Roundup
Issued by NWS

Home | Current Version | Previous Version | Graphics & Text | Print | Product List | Glossary On
Versions: 1 2 3 4 5 6 7 8 9 10 11 12 13 14 15 16 17 18 19 20 21 22 23 24 25 26 27 28 29 30 31 32 33 34 35 36 37 38 39 40 41 42 43 44 45 46 47 48 49 50
913
ASUS43 KLMK 121010
RWRKY
KENTUCKY REGIONAL WEATHER ROUNDUP
NATIONAL WEATHER SERVICE LOUISVILLE KY
500 AM EST FRI FEB 12 2016

NOTE "FAIR" INDICATES FEW OR NO CLOUDS BELOW 12,000 FEET
WITH NO SIGNIFICANT WEATHER AND/OR OBSTRUCTIONS TO VISIBILITY.

KYZ001>023-026-027-061>063-070>075-121100-
WESTERN AND SOUTH CENTRAL KENTUCKY

CITY           SKY/WX    TMP DP  RH WIND       PRES   REMARKS
PADUCAH        CLOUDY    28  23  81 E7        30.19S WCI  21
HENDERSON      CLOUDY    25  19  80 CALM      30.21F
OWENSBORO      LGT SNOW  27  19  74 CALM      30.22F
HOPKINSVILLE   CLOUDY    30  19  65 NE8       30.18S WCI  22
BOWLING GREEN  CLOUDY    32  19  58 NE3       30.20S
GLASGOW        CLOUDY    28  19  67 N3        30.19R
$$

KYZ024-025-028>034-038-045-046-053-121100-
NORTH CENTRAL KENTUCKY

CITY           SKY/WX    TMP DP  RH WIND       PRES   REMARKS
LOUISVILLE/SDF CLOUDY    27  11  51 CALM      30.21R
LOUISVILLE/LOU CLOUDY    26  12  55 CALM      30.21R
FORT KNOX      CLOUDY    26  13  58 SW2       30.18R
$$

KYZ035>037-039>044-047>052-055>060-089>105-121100-
NORTHEAST KENTUCKY

CITY           SKY/WX    TMP DP  RH WIND       PRES   REMARKS
LEXINGTON      CLOUDY    24  13  62 E6        30.16F WCI  17
COVINGTON      CLOUDY    20   9  62 S5        30.18F WCI  13
FRANKFORT      CLOUDY    24  13  62 E3        30.17F
$$

KYZ054-064>069-076>088-106>120-121100-
SOUTHEAST KENTUCKY

CITY           SKY/WX    TMP DP  RH WIND       PRES   REMARKS
JACKSON        CLOUDY    21   8  57 NE3       30.15F
LONDON         MOCLDY    24  11  57 E3        30.15F
SOMERSET       CLOUDY    27  14  59 CALM      30.18S
MIDDLESBORO    CLOUDY    28  22  79 CALM      30.15F
MONTICELLO     CLOUDY    27  17  66 W6        30.17S WCI  20
$$





USA.gov is the U.S. government's official web portal to all federal, state and local government web resources and services.